Regional Weather Roundup
Issued by NWS

Home | Current Version | Previous Version | Text Only | Print | Product List | Glossary Off
Versions: 1 2 3 4 5 6 7 8 9 10 11 12 13 14 15 16 17 18 19 20 21 22 23 24 25 26 27 28 29 30 31 32 33 34 35 36 37 38 39 40 41 42 43 44 45 46 47 48 49 50

000
ASUS43 KOAX 210010
RWRNE

WEATHER ROUNDUP FOR NEBRASKA
NATIONAL WEATHER SERVICE OMAHA NE
700 PM CDT FRI OCT 20 2017

NOTES: SATELLITE DATA IS BEING USED TO AUGMENT CLOUD COVER ABOVE
       12000 FEET.
       "FAIR" INDICATES FEW OR NO CLOUDS BELOW 12,000 FEET WITH NO
       SIGNIFICANT WEATHER AND/OR OBSTRUCTIONS TO VISIBILITY.


NEZ001>004-019>022-054>056-210100-
NEBRASKA PANHANDLE

CITY           SKY/WX    TMP DP  RH WIND       PRES   REMARKS
SCOTTSBLUFF    CLOUDY    71  34  25 S6        29.44F
6HR MIN TEMP:  67; 6HR MAX TEMP:  81;

ALLIANCE       CLEAR     63  45  51 S12       29.47F
6HR MIN TEMP:  63; 6HR MAX TEMP:  76;

CHADRON        CLEAR     73  39  29 S20       29.38S
6HR MIN TEMP:  73; 6HR MAX TEMP:  84;

GORDON         FAIR      68  46  45 S9        29.44S
6HR MIN TEMP:  68; 6HR MAX TEMP:  80;

KIMBALL        CLEAR     66  32  28 S8        29.53S
SIDNEY         CLEAR     67  40  37 SE13      29.52F
6HR MIN TEMP:  67; 6HR MAX TEMP:  79;

$$

NEZ057>060-069>072-079>082-210100-
SOUTHWEST NEBRASKA

CITY           SKY/WX    TMP DP  RH WIND       PRES   REMARKS
NORTH PLATTE   CLEAR     73  52  47 S18G32    29.49S
6HR MIN TEMP:  68; 6HR MAX TEMP:  76;

IMPERIAL       CLEAR     70  41  34 S7        29.50S
6HR MIN TEMP:  69; 6HR MAX TEMP:  79;

LEXINGTON      CLEAR     73  53  49 S24G32    29.55S
MCCOOK         CLEAR     74  52  46 S20G32    29.52R
6HR MIN TEMP:  72; 6HR MAX TEMP:  82;

OGALLALA       CLEAR     71  46  40 CALM      29.50S
$$

NEZ005>010-023>029-035>040-094-210100-
NORTH CENTRAL NEBRASKA

CITY           SKY/WX    TMP DP  RH WIND       PRES   REMARKS
VALENTINE      CLEAR     70  51  51 S12       29.46S
6HR MIN TEMP:  70; 6HR MAX TEMP:  78;

AINSWORTH      PTCLDY    68  53  58 S12       29.48S
BROKEN BOW     CLEAR     73  53  49 S23G33    29.53R
6HR MIN TEMP:  66; 6HR MAX TEMP:  75;

O`NEILL        MOCLDY    71  57  61 S18G25    29.53S
ORD            MOCLDY    72  56  57 S18G32    29.54R
6HR MIN TEMP:  70; 6HR MAX TEMP:  76;

THEDFORD       CLOUDY    71  51  49 S9        29.50S
$$

NEZ041-046>049-061>064-073>077-083>087-210100-
SOUTH CENTRAL NEBRASKA

CITY           SKY/WX    TMP DP  RH WIND       PRES   REMARKS
GRAND ISLAND   CLEAR     72  58  61 S24G36    29.60S
6HR MIN TEMP:  71; 6HR MAX TEMP:  76;

AURORA         CLEAR     72  57  59 S23G38    29.62R
HASTINGS       PTCLDY    72  56  57 S17G33    29.62S
6HR MIN TEMP:  71; 6HR MAX TEMP:  76;

HEBRON         CLEAR     73  57  55 S17G26    29.67F
HOLDREGE       CLEAR     72  57  59 S18G29    29.57F
KEARNEY        MOCLDY    72  57  59 S23G33    29.58S
YORK           CLEAR     72  57  60 S25G37    29.63S
$$

NEZ011>018-030>034-042>045-210100-
NORTHEAST NEBRASKA

CITY           SKY/WX    TMP DP  RH WIND       PRES   REMARKS
NORFOLK        CLEAR     71  59  65 S18G28    29.58S
6HR MIN TEMP:  71; 6HR MAX TEMP:  77;

ALBION         PTCLDY    72  59  63 S17G25    29.59S
BLAIR          CLOUDY    73  59  62 S17G30    29.69F
COLUMBUS       CLEAR     73  57  56 S17G26    29.63S HAZE
FREMONT        CLOUDY    72  58  60 SE15G26   29.67S
TEKAMAH        CLOUDY    73  57  57 S16G28    29.68F
6HR MIN TEMP:  73; 6HR MAX TEMP:  78;

WAYNE          CLOUDY    73  56  56 S20G31    29.61S
$$

NEZ050>053-065>068-078-088>093-210100-
SOUTHEAST NEBRASKA

CITY           SKY/WX    TMP DP  RH WIND       PRES   REMARKS
LINCOLN        CLEAR     73  58  59 S22G28    29.67F
6HR MIN TEMP:  73; 6HR MAX TEMP:  78;

OMAHA EPPLEY   CLOUDY    73  58  59 S26       29.70F
6HR MIN TEMP:  73; 6HR MAX TEMP:  78; 6HR PCP: TRACE;

BEATRICE       CLEAR     73  59  61 S17G25    29.71S
FALLS CITY     CLEAR     71  57  61 S15G23    29.78F
6HR MIN TEMP:  71; 6HR MAX TEMP:  76;

NEBRASKA CITY  CLEAR     72  59  64 S16G29    29.75S
PLATTSMOUTH    CLOUDY    71  59  64 SE16G22   29.73F
$$

NEZ044-045-051>053-067-210100-
OMAHA AREA

CITY           SKY/WX    TMP DP  RH WIND       PRES   REMARKS
OMAHA EPPLEY   CLOUDY    73  58  59 S26       29.70F
6HR MIN TEMP:  73; 6HR MAX TEMP:  78; 6HR PCP: TRACE;

BLAIR          CLOUDY    73  59  62 S17G30    29.69F
FREMONT        CLOUDY    72  58  60 SE15G26   29.67S
MILLARD        MOCLDY    74  60  61 SE14G23   29.70F
OFFUTT AFB     CLOUDY    71  58  62 SE18      29.71F
PLATTSMOUTH    CLOUDY    71  59  64 SE16G22   29.73F
WAHOO          FAIR      73  57  58 S20       29.68S
$$




USA.gov is the U.S. government's official web portal to all federal, state and local government web resources and services.